エラスムス彗星

C/2020 S3 ( Erasmus )

English version
Home page
Updated on July 24, 2022

---------------------------------------------------------------------

・ プロフィール

発見日 2020年9月17日
発見光度 18.4等
発見者 Nicolas Erasmus (Asteroid Terrestrial-Impact Last Alert System (ATLAS) search program)

・ 写真集

・ 軌道要素

Epoch 2022 Jan. 21.0 TT = JDT 2459600.5
T 2020 Dec. 12.68039 TT                                 Rudenko
q   0.3970907            (2000.0)            P               Q
z  +0.0055902      Peri.  349.97155     -0.83360106     +0.50148333
 +/-0.0000033      Node   222.81619     -0.48025401     -0.86511639
e   0.9977802      Incl.   19.92058     -0.27288341     -0.00938650
From 859 observations 2020 Sept. 17-2021 Nov. 27, mean residual 0".8.

・ 星図

・ 光度変化

        m1 = 8.3 + 5 logΔ + 10.0 log r(t - 5)

---------------------------------------------------------------------

軌道要素はM.P.E.C. 2022-C56に掲載されたものです。
星図はステラナビゲータ Ver.10 (アストロアーツ) で作成したものです。
光度グラフはComet for Windowsで作成したものです。

---------------------------------------------------------------------

Copyright(C) Seiichi Yoshida (comet@aerith.net). All rights reserved.